Regional Weather Roundup
Issued by NWS Bismarck, ND

Home | Current Version | Previous Version | Text Only | Print | Product List | Glossary On
Versions: 1 2 3 4 5 6 7 8 9 10 11 12 13 14 15 16 17 18 19 20 21 22 23 24 25 26 27 28 29 30 31 32 33 34 35 36 37 38 39 40 41 42 43 44 45 46 47 48 49 50
000
ASUS43 KBIS 181210
RWRBIS

NWR BROADCAST TEXT
NATIONAL WEATHER SERVICE BISMARCK ND
600 AM CST SAT NOV 18 2017

NOTE: "FAIR" INDICATES FEW OR NO CLOUDS BELOW 12,000 FEET WITH NO
SIGNIFICANT WEATHER AND/OR OBSTRUCTIONS TO VISIBILITY.


CITY           SKY/WX    TMP DP  RH WIND       PRES   REMARKS
WILLISTON      PTCLDY    12   7  80 W8        30.07R WCI   0
MINOT          MOCLDY    16  10  77 W20       30.00R WCI  -1
MINOT AFB      PTCLDY    14   9  80 NW23      29.99R WCI  -5
BISMARCK       CLEAR     22  17  81 NW7       30.02R WCI  13
DICKINSON      CLEAR     13   9  84 NW10      30.01R WCI   0
GARRISON         N/A     14  10  84 NW18      30.02R WCI  -3
HETTINGER ARPT CLEAR     19  15  84 NW12      30.01R WCI   7
JAMESTOWN      CLOUDY    19  14  81 NW14      29.92R WCI   6
CARRINGTON     PTSUNNY   16  12  86 NW22      29.96R WCI  -2
HAZEN          PTSUNNY   18  14  86 NW13      30.07R WCI   4
LINTON           N/A     18  12  79 W5        30.00R WCI  11
OAKES            N/A     19  16  86 NW14      29.93R WCI   6
RUGBY          PTSUNNY   10   9  92 W14       29.96R WCI  -5
STANLEY        FAIR      10  10 100 NW14G21   30.02R WCI  -5
TIOGA          FAIR      10   9  92 W12       30.03R WCI  -4
WATFORD CITY   FAIR      10   7  85 SW8       30.07R WCI  -1
$$

CITY           SKY/WX    TMP DP  RH WIND       PRES   REMARKS
GRAND FORKS    PTCLDY    16  10  77 NW9       29.91R WCI   4
GRAND FORKS AF CLOUDY    16  10  74 NW12      29.91R WCI   3
DEVILS LAKE    CLOUDY    14  10  84 NW20      29.94R WCI  -3
FARGO          CLOUDY    21  16  81 NW12      29.91R WCI   9
CANDO          CLOUDY    12  12 100 W13       29.96R WCI  -3
CAVALIER       FAIR      16   9  73 NW14      29.91R WCI   1
GRAFTON        FAIR      16  10  79 NW12      29.93R WCI   3
GWINNER          N/A     21  16  79 NW12      29.91R WCI   9
LANGDON        FAIR      12  10  92 NW17      29.89R WCI  -5
ROLLA          FLURRIES  12   7  79 NW16G25   29.92R WCI  -4
WALHALLA       FAIR      16  10  79 NW15      29.92R WCI   1
$$

CITY           SKY/WX    TMP DP  RH WIND       PRES   REMARKS
ABERDEEN       PTCLDY    17  15  92 N6        29.93R WCI   9
MOBRIDGE       CLEAR     26  20  77 N16G28    29.95R WCI  14
BUFFALO          N/A     28  21  75 NW9       29.96R WCI  19
RAPID CITY     CLEAR     34  20  56 NW21      30.04R
GLASGOW        PTCLDY    10   7  87 CALM      30.08R
WOLF POINT     PTCLDY    11   5  77 W7        30.11R WCI   0
GLENDIVE       CLEAR     14   9  80 S3        30.09R
MILES CITY     MOCLDY    22  21  96 NW7       30.09R WCI  13
BAKER          MOCLDY    21  19  92 NW12      30.05R WCI   9
$$

CITY           SKY/WX    TMP DP  RH WIND       PRES   REMARKS
BILLINGS       CLEAR     34  15  46 W22       30.12R
GREAT FALLS    CLOUDY    35  19  52 SW21G30   30.06R
REGINA         PTCLDY    -4  -8  84 W6        30.02R WCI -16
ESTEVAN        FLURRIES   9   1  72 NW9       30.03R WCI  -5
$$





USA.gov is the U.S. government's official web portal to all federal, state and local government web resources and services.